Flag for U.S.A. Weather past 2 weeks in Laredo, Texas, U.S.A.

Now
92 °F

Passing clouds.


Feels Like: 93 °F
Forecast: 74 / 93 °F
Wind: 13 mph from Northeast

Location: Laredo International Airport

Current Time: Sep 22, 2014 at 4:22:12 PM

Latest Report: Sep 22, 2014 at 3:56 PM


Visibility: 10 mi

Pressure: 30.00 "Hg

Humidity: 38%

Dew point: 63 °F

Location of LaredoLocation

Historic Weather in Laredo — Graph

°F

Laredo temperature yesterday

Maximum temperature yesterday: 88 °F (at 2:56 PM)
Minimum temperature yesterday: 76 °F (at 4:56 AM)
Average temperature yesterday: 81 °F

Past Weeks' High & Low Weather Summary

 TemperatureHumidityPressure
High102 °F (Sep 10, 4:56 PM)100% (Sep 13, 12:56 AM)30.17 "Hg (Sep 13, 12:56 AM)
Low66 °F (Sep 14, 1:56 AM)28% (Sep 7, 2:56 PM)29.72 "Hg (Sep 18, 4:56 PM)
Average82 °F74%29.94 "Hg
* Reported Sep 7 2:56 PM — Sep 22 2:56 PM, Laredo, Weather by CustomWeather, © 2014

Note: Actual official high and low records may vary slightly from our data, if they occured in-between our weather recording intervals... More about our weather records

Advertising

Laredo weather history for previous 24 hours

 ConditionsComfort  
Time TempWeatherWind HumidityBarometerVisibility
2:56 PM
Sep 22
92 °FSunny.9 mph41%30.02 "Hg10 mi
1:56 PM90 °FSunny.9 mph47%30.06 "Hg10 mi
12:56 PM87 °FPassing clouds.10 mph55%30.09 "Hg10 mi
11:56 AM86 °FPassing clouds.14 mph59%30.11 "Hg10 mi
10:56 AM83 °FSunny.12 mph70%30.11 "Hg10 mi
9:56 AM79 °FSunny.8 mph79%30.10 "Hg10 mi
8:56 AM76 °FSunny.7 mph88%30.09 "Hg10 mi
7:56 AM73 °FClear.7 mph100%30.07 "Hg9 mi
6:56 AM72 °FClear.6 mph100%30.06 "Hg10 mi
5:56 AM73 °FClear.6 mph100%30.04 "Hg10 mi
4:56 AM73 °FClear.No wind100%30.03 "Hg9 mi
3:56 AM73 °FClear.No wind100%30.03 "Hg10 mi
2:56 AM74 °FClear.5 mph97%30.04 "Hg10 mi
1:56 AM75 °FClear.No wind94%30.04 "Hg10 mi
12:56 AM76 °FClear.No wind90%30.03 "Hg10 mi
11:56 PM
Sep 21
77 °FClear.6 mph87%30.03 "Hg10 mi
10:56 PM78 °FClear.5 mph85%30.02 "Hg10 mi
9:56 PM80 °FClear.3 mph84%30.01 "Hg10 mi
8:56 PM81 °FPassing clouds.3 mph79%29.98 "Hg10 mi
7:56 PM82 °FScattered clouds.6 mph74%29.96 "Hg10 mi
6:56 PM81 °FPassing clouds.6 mph74%29.94 "Hg10 mi
5:56 PM87 °FScattered clouds.18 mph57%29.93 "Hg10 mi
4:56 PM86 °FPartly sunny.10 mph67%29.92 "Hg10 mi
Weather by CustomWeather, © 2014

See weather overviewHow to use our weather pages